This demonstration page uses our WeatherBlox Daily Observations layout. Learn more.

38.88101, -77.10428

Hourly Observations for February 2, 2018

Temp ( °F °C ) Dew Point ( °F °C ) Humidity (%) Winds ( mph kmh ) Pressure ( in mb ) Visibility ( mi km ) Precip ( " mm )
12:47 am 00:47 Cloudy with Light Rain 42 5.6 39 3.9 89 89 NNW 10 17 29.93 1014 8 12.87472 0.01 0.254
12:58 am 00:58 Cloudy with Light Rain 41 5 39 3.9 93 93 NW 10 17 29.94 1014 8 12.87472 0.01 0.254
1:16 am 01:16 Cloudy with Light Rain 41 5 38 3.3 89 89 VRB 6 9 29.94 1014 10 16.0934 0.02 0.508
1:52 am 01:52 Cloudy with Light Rain 41 5 37 2.8 86 86 Calm 29.93 1014 10 16.0934 0.02 0.508
2:52 am 02:52 Cloudy with Light Rain 41 5 37 2.8 86 86 SW 5 7 29.94 1014 10 16.0934 0.01 0.254
3:52 am 03:52 Cloudy 41 5 36 2.2 82 82 W 8 13 29.96 1014 10 16.0934 0 0.0254
4:52 am 04:52 Cloudy 39 3.9 29 -1.7 67 67 NNW 20 31 29.98 1015 10 16.0934 0 0
5:52 am 05:52 Cloudy 37 2.8 25 -3.9 62 62 NNW 20 31 30.02 1017 10 16.0934 0 0
6:52 am 06:52 Partly Cloudy 33 0.6 18 -7.8 54 54 NW 20 31 30.06 1018 10 16.0934 0 0
7:52 am 07:52 Partly Cloudy 32 0 13 -10.6 45 45 NW 17 28 30.13 1020 10 16.0934 0 0
8:52 am 08:52 Partly Cloudy 31 -0.6 13 -10.6 47 47 NW 24 39 30.15 1021 10 16.0934 0 0
9:52 am 09:52 Mostly Cloudy 31 -0.6 11 -11.7 43 43 WNW 21 33 30.2 1023 10 16.0934 0 0
10:52 am 10:52 Partly Cloudy 31 -0.6 8 -13.3 38 38 WNW 22 35 30.22 1023 10 16.0934 0 0
11:13 am 11:13 Mostly Cloudy 31 -0.6 10 -12.2 42 42 NW 20 31 30.24 1024 10 16.0934 0 0
11:52 am 11:52 Mostly Cloudy 29 -1.7 11 -11.7 47 47 NW 13 20 30.24 1024 10 16.0934 0 0
12:52 pm 12:52 Mostly Cloudy 28 -2.2 8 -13.3 43 43 WNW 24 39 30.24 1024 10 16.0934 0 0
1:52 pm 13:52 Partly Cloudy 29 -1.7 6 -14.4 38 38 WNW 23 37 30.26 1025 10 16.0934 0 0
2:52 pm 14:52 Partly Cloudy 27 -2.8 2 -16.7 34 34 WNW 23 37 30.29 1026 10 16.0934 0 0
3:52 pm 15:52 Partly Cloudy 28 -2.2 3 -16.1 34 34 NW 20 31 30.32 1027 10 16.0934 0 0
4:52 pm 16:52 Partly Cloudy 26 -3.3 1 -17.2 34 34 NW 18 30 30.35 1028 10 16.0934 0 0
5:52 pm 17:52 Mostly Clear 24 -4.4 1 -17.2 36 36 WNW 15 24 30.38 1029 10 16.0934 0 0
6:52 pm 18:52 Mostly Clear 23 -5 0 -17.8 36 36 NW 18 30 30.4 1030 10 16.0934 0 0
7:52 pm 19:52 Clear 22 -5.6 0 -17.8 38 38 NW 14 22 30.43 1030 10 16.0934 0 0
8:52 pm 20:52 Clear 22 -5.6 0 -17.8 38 38 VRB 7 11 30.44 1031 10 16.0934 0 0
9:52 pm 21:52 Clear 22 -5.6 1 -17.2 40 40 NW 14 22 30.45 1031 10 16.0934 0 0
10:52 pm 22:52 Clear 20 -6.7 2 -16.7 45 45 NNW 7 11 30.45 1031 10 16.0934 0 0
11:52 pm 23:52 Clear 20 -6.7 3 -16.1 48 48 WNW 7 11 30.47 1032 10 16.0934 0 0

Powered by AerisWeather